Miscellaneous Local Product
Issued by NWS Hastings, NE

Home | Current Version | Previous Version | Graphics & Text | Print | Product List | Glossary On
Versions: 1 2 3 4 5 6 7 8 9 10 11 12 13 14 15 16 17 18 19 20 21 22 23 24 25 26 27 28 29 30 31 32 33 34 35 36 37 38 39 40 41 42 43 44 45 46 47 48 49 50
000
AXUS43 KGID 030902
MISGRI

GID CWA HOURLY WEATHER ROUNDUP
NATIONAL WEATHER SERVICE HASTINGS NE
300 AM CST TUE MAR 03 2015

NOTE: "FAIR" INDICATES FEW OR NO CLOUDS BELOW 12,000 FEET WITH NO
SIGNIFICANT WEATHER AND/OR OBSTRUCTIONS TO VISIBILITY.

...SOUTH CENTRAL NEBRASKA...

CITY           SKY/WX    TMP DP  RH WIND       PRES   REMARKS
GRAND ISLAND   CLOUDY    29  23  78 SE6       29.68F WCI  23
HASTINGS       CLOUDY    29  23  78 S8        29.65F WCI  21
KEARNEY        CLOUDY    28  21  74 SE5       29.63F WCI  23
ORD            CLOUDY    28  19  69 S5        29.66F WCI  23
YORK           CLOUDY    30  27  86 SE7       29.70F WCI  23
AURORA         CLOUDY    29  24  80 SE6       29.68F WCI  23
LEXINGTON      CLOUDY    29  23  78 E3        29.61F
HOLDREGE       CLOUDY    28  23  80 S6        29.62F WCI  22
HEBRON         CLOUDY    32  27  83 S8        29.69F WCI  25

...NEBRASKA PANHANDLE...

CITY           SKY/WX    TMP DP  RH WIND       PRES   REMARKS
CHADRON        MIX PCPN  28  24  85 N23G33    29.69R FOG     WCI  14
ALLIANCE       CLOUDY    27  26  96 W12       29.63R FOG     WCI  17
SCOTTSBLUFF    CLOUDY    29  27  92 NW3       29.63R FOG
SIDNEY         FOG       28  27  96 W10       29.61R VSB 1/4 WCI  19

...WESTERN AND NORTH CENTRAL NEBRASKA...

CITY           SKY/WX    TMP DP  RH WIND       PRES   REMARKS
VALENTINE      CLOUDY    31  25  78 SW3       29.61F HAZE
AINSWORTH      CLOUDY    28  26  92 SW7       29.62S FOG     WCI  21
ONEILL         CLOUDY    30  21  68 S7        29.66F WCI  23
BROKEN BOW     CLOUDY    28  21  75 S6        29.63F WCI  22
IMPERIAL         N/A     28  24  85 SE3       29.58S FOG
NORTH PLATTE   CLOUDY    28  23  81 E5        29.60F WCI  23
MCCOOK         CLOUDY    29  23  78 N8        29.58R WCI  21

...EASTERN NEBRASKA...

CITY           SKY/WX    TMP DP  RH WIND       PRES   REMARKS
NORFOLK        CLOUDY    30  22  72 S10       29.69F WCI  21
SO SIOUX CITY  CLOUDY    30  21  69 SE9       29.75F WCI  22
TEKAMAH        CLOUDY    31  22  69 SE7       29.77F WCI  24
COLUMBUS       CLOUDY    30  19  64 S7        29.73F WCI  23
ALBION         CLOUDY    30  21  70 S7        29.69F WCI  23
OMAHA EPPLEY   CLOUDY    32  24  72 S14       29.77F WCI  22
OFFUTT AFB     CLOUDY    32  25  74 SE9       29.74F WCI  24
MILLARD        CLOUDY    32  24  71 SE7       29.76F WCI  26
LINCOLN        CLOUDY    32  27  81 S13       29.73F WCI  22
NEBRASKA CITY  CLOUDY    32  26  79 S14       29.75F WCI  22
BEATRICE       FOG       32  31  98 S10       29.70F VSB 3/4 WCI  23
FALLS CITY     CLOUDY    33  29  85 S14       29.79F WCI  23

...NORTHERN KANSAS...

CITY           SKY/WX    TMP DP  RH WIND       PRES   REMARKS
GOODLAND       CLOUDY    37  31  78 W18       29.56S WCI  27
HILL CITY      CLOUDY    38  32  79 NW10      29.61R WCI  31
PHILLIPSBURG   MOCLDY    34  28  80 NE3       29.62F
SMITH CENTER   CLOUDY    30  27  86 SE6       29.63F WCI  24
BELOIT         MOCLDY    34  28  80 SE6       29.66F WCI  29
HAYS           CLOUDY    37  27  65 S22       29.60F WCI  27
RUSSELL        MOCLDY    35  29  78 S26       29.59F WCI  22
CONCORDIA      CLOUDY    33  31  92 S14G21    29.66F FOG     WCI  23
SALINA         CLOUDY    36  31  82 S17G23    29.70F WCI  26
TOPEKA         CLOUDY    35  33  92 S10       29.83F FOG     WCI  27



USA.gov is the U.S. government's official web portal to all federal, state and local government web resources and services.